TimeCST,TemperatureF,Dew PointF,Humidity,Sea Level PressureIn,VisibilityMPH,Wind Direction,Wind SpeedMPH,Gust SpeedMPH,PrecipitationIn,Events,Conditions,WindDirDegrees,DateUTC
12:15 AM,21.0,18.3,89,29.85,2.5,North,12.7,-,N/A,Snow,Light Snow,10,2013-02-22 06:15:00
12:35 AM,20.8,18.1,89,29.85,4.0,North,12.7,-,N/A,Snow,Light Snow,10,2013-02-22 06:35:00
12:55 AM,20.3,17.6,89,29.85,10.0,North,10.4,-,N/A,Snow,Light Snow,350,2013-02-22 06:55:00
1:15 AM,20.3,17.6,89,29.85,10.0,North,10.4,-,N/A,Snow,Light Snow,350,2013-02-22 07:15:00
1:35 AM,20.1,17.4,89,29.85,10.0,North,11.5,-,N/A,Snow,Light Snow,350,2013-02-22 07:35:00
1:55 AM,20.3,17.6,89,29.85,5.0,NNW,11.5,-,N/A,Snow,Light Snow,340,2013-02-22 07:55:00
2:15 AM,20.3,17.6,89,29.85,5.0,NNW,13.8,-,N/A,Snow,Light Snow,340,2013-02-22 08:15:00
2:35 AM,20.3,17.4,89,29.85,5.0,NNW,11.5,-,N/A,Snow,Light Snow,340,2013-02-22 08:35:00
2:55 AM,19.8,16.7,88,29.85,7.0,NNW,13.8,-,N/A,Snow,Light Snow,340,2013-02-22 08:55:00
3:15 AM,19.8,16.7,88,29.85,10.0,NNW,13.8,-,N/A,Snow,Light Snow,340,2013-02-22 09:15:00
3:35 AM,19.9,16.7,87,29.85,7.0,NNW,13.8,-,N/A,Snow,Light Snow,340,2013-02-22 09:35:00
3:55 AM,20.1,17.4,89,29.85,1.8,NNW,13.8,-,N/A,Snow,Light Snow,340,2013-02-22 09:55:00
4:15 AM,20.3,17.6,89,29.86,2.5,NNW,13.8,18.4,N/A,Snow,Light Snow,330,2013-02-22 10:15:00
4:35 AM,20.1,16.9,87,29.86,5.0,NNW,16.1,-,N/A,Snow,Light Snow,340,2013-02-22 10:35:00
4:55 AM,19.6,16.3,87,29.86,5.0,NNW,17.3,-,N/A,Snow,Light Snow,340,2013-02-22 10:55:00
5:15 AM,19.2,15.8,87,29.87,10.0,NNW,15.0,19.6,N/A,Snow,Light Snow,330,2013-02-22 11:15:00
5:35 AM,18.3,14.9,86,29.87,10.0,NNW,13.8,18.4,N/A,,Scattered Clouds,330,2013-02-22 11:35:00
5:55 AM,18.0,14.4,86,29.89,10.0,NW,15.0,-,N/A,,Scattered Clouds,320,2013-02-22 11:55:00
6:15 AM,17.6,13.8,85,29.89,10.0,NW,12.7,-,N/A,,Scattered Clouds,320,2013-02-22 12:15:00
6:35 AM,16.9,13.1,85,29.89,10.0,NW,10.4,-,N/A,,Clear,320,2013-02-22 12:35:00
6:55 AM,15.8,12.2,86,29.89,10.0,NW,11.5,-,N/A,,Clear,320,2013-02-22 12:55:00
7:35 AM,16.5,12.6,84,29.90,10.0,NNW,11.5,-,N/A,,Scattered Clouds,330,2013-02-22 13:35:00
7:55 AM,15.6,11.3,83,29.91,10.0,NNW,10.4,-,N/A,,Clear,330,2013-02-22 13:55:00
8:15 AM,15.6,11.1,82,29.92,10.0,NNW,11.5,-,N/A,,Clear,330,2013-02-22 14:15:00
8:35 AM,16.7,11.8,81,29.93,10.0,NW,11.5,-,N/A,,Clear,320,2013-02-22 14:35:00
8:55 AM,17.4,12.2,80,29.95,10.0,WNW,10.4,-,N/A,,Clear,300,2013-02-22 14:55:00
9:15 AM,18.1,12.2,78,29.95,10.0,WNW,10.4,-,N/A,,Clear,300,2013-02-22 15:15:00
9:35 AM,18.0,12.0,78,29.96,10.0,WNW,10.4,-,N/A,,Mostly Cloudy,290,2013-02-22 15:35:00
9:55 AM,19.6,12.9,75,29.96,10.0,NW,12.7,-,N/A,,Scattered Clouds,310,2013-02-22 15:55:00
10:15 AM,20.3,13.3,74,29.96,10.0,NW,12.7,18.4,N/A,,Scattered Clouds,310,2013-02-22 16:15:00
10:35 AM,20.3,13.8,76,29.96,10.0,NW,13.8,19.6,N/A,,Mostly Cloudy,310,2013-02-22 16:35:00
10:55 AM,20.5,14.0,76,29.97,10.0,NW,13.8,18.4,N/A,,Scattered Clouds,320,2013-02-22 16:55:00
11:15 AM,21.4,14.2,74,29.99,10.0,WNW,12.7,17.3,N/A,,Scattered Clouds,290,2013-02-22 17:15:00
11:35 AM,22.3,14.5,72,29.99,10.0,WNW,13.8,-,N/A,,Scattered Clouds,300,2013-02-22 17:35:00
11:55 AM,22.6,14.4,71,30.00,10.0,WNW,16.1,-,N/A,,Clear,300,2013-02-22 17:55:00
12:15 PM,23.4,14.5,69,30.00,10.0,NW,11.5,-,N/A,,Clear,310,2013-02-22 18:15:00
12:35 PM,23.7,14.2,67,30.00,10.0,NW,15.0,-,N/A,,Clear,310,2013-02-22 18:35:00
12:55 PM,23.9,14.5,67,30.00,10.0,WNW,12.7,-,N/A,,Clear,300,2013-02-22 18:55:00
1:15 PM,23.9,14.2,66,30.00,10.0,WNW,13.8,-,N/A,,Clear,300,2013-02-22 19:15:00
1:35 PM,23.9,14.0,66,30.00,10.0,WNW,16.1,19.6,N/A,,Clear,300,2013-02-22 19:35:00
1:55 PM,24.3,14.5,67,29.99,10.0,NW,13.8,-,N/A,,Clear,310,2013-02-22 19:55:00
2:15 PM,23.9,14.2,66,29.99,10.0,NW,13.8,-,N/A,,Clear,310,2013-02-22 20:15:00
2:35 PM,23.9,14.0,66,29.99,10.0,NW,13.8,-,N/A,,Clear,320,2013-02-22 20:35:00
2:55 PM,23.7,14.0,66,29.99,10.0,NW,13.8,-,N/A,,Clear,310,2013-02-22 20:55:00
3:15 PM,23.4,14.0,67,29.98,10.0,NW,12.7,-,N/A,,Clear,320,2013-02-22 21:15:00
3:35 PM,23.5,14.5,69,29.99,10.0,NW,11.5,-,N/A,,Clear,310,2013-02-22 21:35:00
3:55 PM,23.7,14.2,67,30.00,10.0,WNW,11.5,-,N/A,,Clear,300,2013-02-22 21:55:00
4:15 PM,23.9,14.5,67,30.00,10.0,WNW,12.7,-,N/A,,Mostly Cloudy,290,2013-02-22 22:15:00
4:35 PM,23.7,14.5,68,30.00,10.0,WNW,9.2,-,N/A,,Mostly Cloudy,300,2013-02-22 22:35:00
4:55 PM,23.0,14.0,68,30.00,10.0,NW,9.2,-,N/A,,Scattered Clouds,310,2013-02-22 22:55:00
5:15 PM,22.1,13.8,70,30.00,10.0,WNW,5.8,-,N/A,,Clear,290,2013-02-22 23:15:00
5:35 PM,19.9,12.7,74,30.00,10.0,West,5.8,-,N/A,,Clear,270,2013-02-22 23:35:00
5:55 PM,18.3,11.8,76,30.02,10.0,West,5.8,-,N/A,,Clear,280,2013-02-22 23:55:00
6:15 PM,16.2,10.8,79,30.02,10.0,West,8.1,-,N/A,,Clear,280,2013-02-23 00:15:00
6:35 PM,16.3,11.3,81,30.02,10.0,West,5.8,-,N/A,,Clear,270,2013-02-23 00:35:00
6:55 PM,15.3,10.9,83,30.02,10.0,West,5.8,-,N/A,,Clear,260,2013-02-23 00:55:00
7:15 PM,13.8,9.7,84,30.02,10.0,West,6.9,-,N/A,,Clear,280,2013-02-23 01:15:00
7:35 PM,14.0,10.0,84,30.02,10.0,West,6.9,-,N/A,,Clear,280,2013-02-23 01:35:00
7:55 PM,14.0,9.9,84,30.02,10.0,WSW,5.8,-,N/A,,Clear,250,2013-02-23 01:55:00
8:15 PM,15.3,10.8,82,30.02,10.0,West,6.9,-,N/A,,Clear,270,2013-02-23 02:15:00
8:35 PM,13.5,9.5,84,30.02,10.0,West,6.9,-,N/A,,Clear,280,2013-02-23 02:35:00
8:55 PM,12.2,8.6,85,30.02,10.0,West,6.9,-,N/A,,Clear,280,2013-02-23 02:55:00
9:15 PM,13.5,9.9,86,30.02,10.0,West,6.9,-,N/A,,Clear,280,2013-02-23 03:15:00
9:35 PM,13.3,9.3,84,30.02,10.0,WNW,6.9,-,N/A,,Clear,290,2013-02-23 03:35:00
9:55 PM,12.2,8.4,85,30.02,10.0,WNW,5.8,-,N/A,,Clear,290,2013-02-23 03:55:00
10:15 PM,11.8,8.2,85,30.00,10.0,WNW,6.9,-,N/A,,Clear,290,2013-02-23 04:15:00
10:35 PM,10.6,6.8,85,30.01,10.0,West,4.6,-,N/A,,Clear,270,2013-02-23 04:35:00
10:55 PM,11.3,8.4,88,30.01,10.0,West,5.8,-,N/A,,Clear,260,2013-02-23 04:55:00
11:15 PM,10.8,8.2,90,30.01,10.0,Calm,Calm,-,N/A,,Clear,0,2013-02-23 05:15:00
11:35 PM,11.3,9.0,90,30.00,10.0,Calm,Calm,-,N/A,,Clear,0,2013-02-23 05:35:00
11:55 PM,10.9,8.4,90,30.00,10.0,Calm,Calm,-,N/A,,Clear,0,2013-02-23 05:55:00